"Pseudo-MPEC" for P21DGMl

Created 2023 Apr 6 16:22:06 UT using Find_Orb

Click here for an explanation of pseudo-MPECs

 
 Astrometry: 
     P21DGMl* C2023 03 19%-nI!j@HNA^oYL1;wE@Astrometry=\Ywredacted;+iE*.clickF52
     P21DGMl  C2023 03 19EQgSherey6.C11rRoAevRMx!j44Aj?1iJs5U:BTPPxaaJnfor1kYF52
     P21DGMl  C2023 03 19aw:4O;X)ybHdRL7Aexplanation'Qc6\94wU8k@]K'ZeodZM(cjeF52
     P21DGMl  C2023 03 19kv8(=s4/ptwm)5_Ir0*-Oyq/Sr`C]Q@O47IHr2l01OyJxL4\Yc5*F52

Station data:
(F52) Pan-STARRS 2, Haleakala  (N20.707382 W156.255910)  US/Hawaii.
   Observers J. Bulger, T. Dukes, T. Lowe, A. Schultz, M. Willman. Measurers
   K. Chambers, S. Chastel, T. de Boer, L. Denneau, J. Fairlamb, H.
   Flewelling, M. Huber, C.-C. Lin, E. Magnier, Y. Ramanjooloo, R. Wainscoat,
   R. Weryk. 1.8-m Ritchey-Chrétien + CCD.

Orbital elements:  P21DGMl
   Perihelion 2022 Oct 25.86649 +/- 103 TT = 20:47:44 (JD 2459878.36649)
Epoch 2023 Mar 20.0 TT = JDT 2460023.5   Earth MOID: 0.0233      AutoNEOCP
M 148.57053313 +/- 120              (J2000 ecliptic)
n   1.02368180 +/- 0.57             Peri.  235.17011 +/- 70
a   0.97504814 +/- 0.362            Node   151.87439 +/- 70
e   0.0889575 +/- 0.243             Incl.    4.93510 +/- 37
P   0.96/351.67d           H 25.69  G  0.15   U 12.4  SR
q 0.88831029 +/- 0.501    Q 1.06178598 +/- 15.8
From 4 observations 2023 Mar. 19 (30.6 min); mean residual 0".09
Residuals in arcseconds: 
230319 F52  .05-  .07+    230319 F52  .17+  .07-    
230319 F52  .00   .08-    230319 F52  .11-  .07+    

Ephemerides (geocentric):
Date (UTC) HH   RA             Dec           delta  r     elong  mag " sig PA
---- --------  ------------   ------------  ------ ------ -----  --- --------
2023 04 06 16  13 52 06.393   +40 17 55.83  .08593 1.0598 131.8 22.2  51d 162
2023 04 06 17  13 51 59.308   +40 19 36.03  .08597 1.0598 131.8 22.2  51d 162
2023 04 06 18  13 51 52.219   +40 21 15.96  .08601 1.0598 131.7 22.2  51d 162
2023 04 06 19  13 51 45.128   +40 22 55.64  .08605 1.0598 131.7 22.3  51d 162
2023 04 06 20  13 51 38.034   +40 24 35.07  .08609 1.0598 131.7 22.3  51d 162
2023 04 06 21  13 51 30.937   +40 26 14.25  .08613 1.0599 131.7 22.3  51d 162
2023 04 06 22  13 51 23.837   +40 27 53.17  .08617 1.0599 131.6 22.3  51d 162
2023 04 06 23  13 51 16.735   +40 29 31.83  .08621 1.0599 131.6 22.3  51d 162
2023 04 07 00  13 51 09.629   +40 31 10.25  .08625 1.0599 131.6 22.3  51d 162
2023 04 07 01  13 51 02.521   +40 32 48.41  .08629 1.0599 131.5 22.3  51d 162
2023 04 07 02  13 50 55.410   +40 34 26.31  .08633 1.0599 131.5 22.3  51d 162
2023 04 07 03  13 50 48.297   +40 36 03.97  .08637 1.0599 131.5 22.3  51d 162
2023 04 07 04  13 50 41.180   +40 37 41.37  .08641 1.0599 131.5 22.3  51d 162
2023 04 07 05  13 50 34.061   +40 39 18.52  .08645 1.0599 131.4 22.3  51d 162
2023 04 07 06  13 50 26.940   +40 40 55.41  .08649 1.0600 131.4 22.3  51d 162
2023 04 07 07  13 50 19.816   +40 42 32.05  .08653 1.0600 131.4 22.3  51d 162
2023 04 07 08  13 50 12.689   +40 44 08.44  .08658 1.0600 131.4 22.3  51d 162
2023 04 07 09  13 50 05.560   +40 45 44.58  .08662 1.0600 131.3 22.3  51d 162
2023 04 07 10  13 49 58.428   +40 47 20.46  .08666 1.0600 131.3 22.3  51d 161
2023 04 07 11  13 49 51.294   +40 48 56.09  .08670 1.0600 131.3 22.3  51d 161
2023 04 07 12  13 49 44.158   +40 50 31.47  .08674 1.0600 131.2 22.3  51d 161
2023 04 07 13  13 49 37.019   +40 52 06.60  .08678 1.0600 131.2 22.3  51d 161
2023 04 07 14  13 49 29.878   +40 53 41.47  .08682 1.0601 131.2 22.3  51d 161
2023 04 07 15  13 49 22.734   +40 55 16.10  .08686 1.0601 131.2 22.3  51d 161
2023 04 07 16  13 49 15.588   +40 56 50.47  .08690 1.0601 131.1 22.3  51d 161
2023 04 07 17  13 49 08.440   +40 58 24.59  .08694 1.0601 131.1 22.3  51d 161
2023 04 07 18  13 49 01.289   +40 59 58.46  .08699 1.0601 131.1 22.3  51d 161
2023 04 07 19  13 48 54.136   +41 01 32.08  .08703 1.0601 131.1 22.3  51d 161
2023 04 07 20  13 48 46.982   +41 03 05.44  .08707 1.0601 131.0 22.3  51d 161
2023 04 07 21  13 48 39.824   +41 04 38.56  .08711 1.0601 131.0 22.3  51d 161
2023 04 07 22  13 48 32.665   +41 06 11.42  .08715 1.0601 131.0 22.3  51d 161
2023 04 07 23  13 48 25.504   +41 07 44.04  .08719 1.0602 130.9 22.3  51d 161
2023 04 08 00  13 48 18.340   +41 09 16.40  .08723 1.0602 130.9 22.3  51d 161
2023 04 08 01  13 48 11.175   +41 10 48.51  .08728 1.0602 130.9 22.3  51d 161
2023 04 08 02  13 48 04.007   +41 12 20.37  .08732 1.0602 130.9 22.3  51d 161
2023 04 08 03  13 47 56.838   +41 13 51.98  .08736 1.0602 130.8 22.3  51d 161
2023 04 08 04  13 47 49.666   +41 15 23.35  .08740 1.0602 130.8 22.3  51d 161
2023 04 08 05  13 47 42.493   +41 16 54.46  .08744 1.0602 130.8 22.3  51d 161
2023 04 08 06  13 47 35.318   +41 18 25.32  .08748 1.0602 130.8 22.3  51d 161
2023 04 08 07  13 47 28.140   +41 19 55.93  .08753 1.0602 130.7 22.3  51d 161
2023 04 08 08  13 47 20.961   +41 21 26.29  .08757 1.0603 130.7 22.3  51d 161
2023 04 08 09  13 47 13.781   +41 22 56.41  .08761 1.0603 130.7 22.3  51d 161
2023 04 08 10  13 47 06.598   +41 24 26.27  .08765 1.0603 130.6 22.3  51d 161
2023 04 08 11  13 46 59.414   +41 25 55.88  .08769 1.0603 130.6 22.3  51d 161
2023 04 08 12  13 46 52.227   +41 27 25.25  .08774 1.0603 130.6 22.3  51d 161
2023 04 08 13  13 46 45.040   +41 28 54.37  .08778 1.0603 130.6 22.3  51d 161
2023 04 08 14  13 46 37.850   +41 30 23.23  .08782 1.0603 130.5 22.3  51d 161
2023 04 08 15  13 46 30.659   +41 31 51.85  .08786 1.0603 130.5 22.3  51d 161